RH
89 88 89 89 88 89 88 87 87 86 85 83 82 80 78 76 75 73 73 73 72 71 70 70 70 69 67 67 66 66 66 66 65 64 62 60 58 54 49 44 39 34 29 25 23 23 24 25 27 29 30 30 29 27 26 24 22 19 17 15 13 11 10 10 9 10 10 9 9 9 9 9 9 9 8 8 8 8 8 9 9 9 10 10 10
97 95 94 93 92 91 91 90 90 89 88 87 85 82 80 78 77 77 78 79 78 78 78 76 74 72 70 69 68 67 66 64 61 58 55 51 46 41 36 32 29 27 26 25 26 28 29 31 31 30 28 25 22 20 18 17 15 13 12 11 10 9 9 8 8 9 10 9 9 9 10 10 10 9 9 8 8 8 8 8 8 8 8 8 8
103 101 99 98 98 98 97 96 96 95 93 92 90 87 85 83 83 83 84 85 84 84 83 81 78 75 73 70 67 63 59 54 50 45 42 38 34 32 30 30 29 30 30 31 31 32 32 31 28 24 20 17 16 15 13 12 11 10 10 9 9 9 9 8 8 8 9 9 9 9 10 11 11 10 10 9 8 8 8 8 7 7 7 7 7
107 106 106 105 103 104 105 104 102 100 99 97 93 90 89 87 85 85 86 87 86 84 81 79 75 72 67 62 56 51 47 43 40 37 35 34 33 33 33 34 34 34 34 33 32 30 27 23 19 16 14 13 13 12 11 11 10 10 10 9 9 9 8 8 8 8 9 9 10 10 10 11 11 10 10 9 8 8 7 7 7 7 7 7 7
108 110 110 108 105 105 106 106 106 103 100 97 92 88 86 85 84 86 87 87 85 80 75 71 66 60 55 50 46 43 41 39 38 38 38 37 37 37 36 37 36 34 32 29 25 21 18 15 14 12 12 12 11 11 11 10 10 10 10 9 9 9 8 8 8 8 8 9 10 10 9 10 11 10 9 9 8 8 7 7 7 7 6 6 6
108 108 107 107 106 105 105 105 106 103 98 93 90 87 87 88 90 90 88 83 77 71 66 60 55 50 47 45 44 44 43 43 43 42 42 41 39 39 37 35 32 28 24 20 17 14 13 12 12 11 11 11 11 11 11 10 10 10 10 9 9 9 8 8 9 9 9 10 10 10 10 10 10 10 9 8 7 7 7 7 6 6 6 6 6
106 105 105 106 105 106 106 105 103 99 93 90 90 91 91 92 90 83 76 69 63 59 55 51 49 48 48 48 48 48 48 47 46 45 43 41 39 36 32 27 23 19 16 13 12 12 11 11 11 11 11 11 11 11 11 10 11 10 10 9 9 9 9 9 9 9 10 11 11 11 10 10 10 10 9 7 7 7 7 6 6 6 6 6 6
106 106 107 107 106 105 104 101 98 94 90 89 89 89 86 81 75 67 61 57 55 53 51 50 50 50 50 50 50 49 49 47 46 43 40 36 31 26 21 17 15 13 12 11 11 11 12 12 12 12 12 12 11 11 11 11 10 10 10 9 9 9 9 9 10 10 11 11 11 12 11 11 11 10 9 7 7 7 7 7 7 7 7 6 6
107 107 105 105 107 106 101 94 90 86 82 78 76 73 70 65 60 57 55 54 53 52 52 51 51 51 51 50 50 48 46 44 40 35 30 25 20 17 14 12 11 11 11 11 11 12 12 12 13 13 12 12 12 11 11 11 10 10 10 9 9 9 10 10 10 10 11 11 12 11 11 10 10 9 8 8 8 8 8 8 8 8 8 7 6
107 107 106 103 99 94 85 76 71 67 64 63 62 61 59 57 56 55 54 54 53 52 51 51 50 50 49 47 45 42 38 33 28 23 19 16 14 12 12 11 11 11 12 12 13 13 13 13 13 13 12 12 12 12 12 11 11 10 10 10 10 10 10 11 11 11 11 12 12 11 10 10 10 9 8 8 8 8 8 8 8 8 8 7 7
100 95 89 82 73 66 60 56 55 55 56 57 57 56 55 54 53 52 51 51 50 49 49 47 46 44 42 39 35 30 26 22 18 15 13 12 12 11 11 12 12 12 13 13 14 14 14 14 13 13 13 13 12 12 11 11 10 10 10 10 10 10 10 11 11 11 11 11 10 9 9 8 8 7 7 7 7 7 7 7 7 7 7 7 7
72 65 59 55 51 50 50 51 54 55 55 54 51 50 50 49 48 47 46 46 45 43 42 40 37 34 31 27 23 20 17 15 13 12 12 11 12 12 12 12 13 13 14 14 14 14 14 14 13 13 13 13 13 12 11 11 10 10 10 10 10 10 10 10 10 10 9 9 8 8 8 7 7 7 7 7 7 8 8 7 7 7 7 7 7
52 49 48 48 49 50 52 53 53 52 49 48 46 45 44 43 43 42 40 39 37 35 32 29 27 23 20 18 16 14 13 12 12 12 12 12 12 12 13 13 13 14 14 14 14 14 14 14 14 14 14 13 12 11 11 10 9 9 9 9 9 9 9 9 9 9 9 8 8 9 9 8 8 8 8 8 9 9 8 8 8 7 8 8 8
50 50 50 50 50 51 51 50 48 46 44 43 41 40 39 38 37 35 33 31 28 25 23 20 18 16 15 14 13 13 12 12 12 12 12 13 13 13 13 14 14 14 15 15 15 14 15 15 14 14 13 12 11 10 9 9 8 8 8 8 9 9 9 9 9 9 9 9 9 10 10 10 10 9 8 8 9 9 8 8 8 8 8 8 7
51 50 50 49 49 47 45 43 42 40 39 38 36 34 33 31 29 27 24 22 20 18 16 15 14 13 13 13 13 13 13 13 13 13 13 13 13 13 13 14 14 15 15 16 16 15 15 14 13 13 12 11 10 9 8 8 7 8 8 9 9 9 10 11 10 10 9 9 10 11 11 10 10 9 9 9 9 9 8 8 8 8 8 8 7
48 47 46 45 42 40 38 37 36 34 32 30 29 27 25 23 21 19 18 16 15 14 13 13 13 13 13 13 13 13 13 14 14 13 13 13 13 13 13 13 14 15 15 15 15 15 14 13 12 11 10 10 9 8 8 8 8 8 8 9 9 10 11 12 11 10 10 10 11 13 13 13 11 9 8 8 9 9 8 8 8 7 7 7 7
40 39 38 36 34 33 31 30 28 26 25 23 21 20 18 17 16 15 14 13 12 13 13 13 13 13 13 13 14 14 14 14 14 13 13 13 13 13 13 13 13 14 14 13 13 12 12 12 12 11 11 10 9 9 8 7 7 8 8 9 10 11 12 12 10 10 10 11 12 13 14 14 12 10 8 7 7 7 8 8 7 7 7 8 8
32 31 30 28 27 26 24 22 21 19 18 17 16 15 14 13 13 12 12 12 12 13 13 13 14 14 14 14 14 15 14 14 14 13 13 13 13 13 13 12 12 12 12 11 11 11 11 12 12 12 11 11 10 9 8 8 8 9 10 11 11 12 12 11 10 10 11 12 13 14 13 12 11 10 9 8 7 7 8 9 9 8 8 9 9
25 24 23 23 21 19 18 16 15 14 14 13 13 12 12 12 12 12 12 12 13 13 14 14 14 14 15 15 14 14 14 14 14 13 13 13 12 12 12 12 11 11 11 10 11 11 11 12 11 11 10 10 10 10 10 9 9 9 10 12 13 14 12 10 10 11 12 12 12 12 11 11 11 11 11 10 9 8 9 10 10 10 10 10 9
19 18 18 16 15 14 14 13 12 12 11 11 11 11 12 12 12 12 13 13 14 14 14 14 15 15 15 15 15 15 14 14 14 13 12 12 11 11 11 11 11 11 11 11 11 11 11 11 10 10 9 9 10 11 12 11 10 10 11 12 13 14 13 12 13 13 12 11 10 9 9 11 12 13 13 12 11 10 10 10 10 10 10 10 11
14 14 13 12 12 12 11 11 11 11 11 11 11 12 12 12 13 13 13 14 14 14 14 14 15 15 15 15 15 15 14 14 13 12 11 10 10 10 10 10 10 10 11 11 11 11 11 10 10 9 9 10 12 13 13 12 11 11 12 12 13 13 13 14 15 14 12 10 9 8 9 11 12 14 15 15 14 12 10 9 9 9 9 10 11
11 11 11 10 10 10 10 10 11 11 11 12 12 13 13 13 14 14 14 14 14 14 14 14 15 15 15 15 15 14 14 14 13 11 10 10 10 10 10 10 10 10 10 11 11 10 10 10 11 11 11 12 13 13 13 12 12 12 12 12 13 13 14 14 15 14 12 11 11 11 11 11 11 13 14 15 15 13 11 9 7 8 8 9 10
9 9 9 9 10 10 10 11 11 12 12 13 13 13 13 13 14 14 14 14 14 14 15 14 15 15 15 15 14 14 13 13 12 11 10 10 10 9 9 10 10 10 10 10 10 11 12 12 13 13 14 14 14 13 12 12 12 12 12 12 13 14 13 13 14 14 14 13 12 12 12 11 11 12 12 13 13 13 12 10 8 7 8 8 10
9 9 9 9 10 10 11 12 12 12 13 13 13 13 13 13 13 13 13 14 14 14 15 14 15 15 15 14 14 13 13 13 12 11 11 10 10 10 9 9 9 9 9 9 11 12 14 16 16 15 15 15 14 13 13 13 13 12 12 12 12 12 13 13 14 14 15 15 14 13 13 12 11 11 11 11 11 11 11 11 10 9 9 10 11
9 9 10 10 11 11 12 12 12 12 12 12 13 13 13 13 13 13 13 14 14 14 14 14 14 14 14 14 14 13 12 12 12 11 11 10 10 9 9 9 9 9 9 10 12 14 15 17 17 16 16 15 13 13 13 13 13 12 12 12 11 11 12 12 13 14 15 15 16 15 15 13 11 10 10 10 10 10 10 10 11 11 12 12 13
9 10 10 11 11 11 11 12 12 12 12 12 12 12 12 13 13 13 13 14 14 14 14 13 13 13 13 13 13 13 12 12 11 11 10 10 10 9 9 9 9 10 11 12 13 14 15 16 17 16 17 16 14 14 13 13 13 12 11 11 11 12 12 12 12 13 14 14 15 15 15 15 14 12 10 8 8 8 8 9 10 12 14 16 17
10 11 11 11 11 11 11 12 12 12 12 12 12 12 12 13 13 13 13 13 13 13 13 12 12 12 12 13 13 13 12 12 11 11 10 10 9 9 9 10 10 11 12 13 13 14 15 16 16 16 16 16 15 15 14 13 13 12 12 11 11 11 11 11 12 12 12 13 13 13 14 15 15 15 13 11 9 8 7 7 8 10 13 17 21
11 11 11 11 11 11 12 12 12 12 12 12 12 12 12 12 12 12 12 12 12 12 12 12 12 12 12 13 12 12 12 11 11 10 10 9 10 10 11 12 12 12 12 12 13 14 15 16 16 15 15 15 15 15 15 14 14 13 12 12 11 10 10 10 11 11 12 12 12 12 13 13 14 14 15 14 12 10 8 7 7 8 10 13 19
11 12 11 12 12 12 12 12 12 12 12 11 11 11 11 11 11 11 11 11 11 12 12 12 12 12 12 12 12 12 12 11 10 10 9 10 11 12 13 13 12 12 12 12 13 14 14 15 15 15 14 14 14 14 14 14 13 13 12 12 11 10 10 10 10 10 10 11 11 12 12 12 12 13 13 14 14 12 10 9 9 9 10 11 13
12 12 12 12 12 12 12 12 11 11 11 11 11 11 11 11 11 11 12 11 11 11 12 12 12 12 11 11 11 11 11 11 10 10 11 11 12 13 14 14 13 12 12 11 12 14 14 14 14 14 14 14 14 14 13 12 11 11 11 11 11 11 11 10 10 10 10 10 10 10 10 10 10 11 11 12 13 12 12 13 14 14 14 13 12
12 12 12 12 12 12 11 11 11 11 11 11 12 12 11 11 11 11 12 12 12 12 12 11 11 11 11 11 11 11 12 12 12 12 12 12 13 13 14 14 13 13 13 12 12 12 12 13 13 14 13 13 13 12 12 11 11 11 10 10 10 10 10 10 10 10 10 10 10 10 10 10 9 9 9 10 11 12 13 15 17 19 20 19 17
12 12 12 12 12 12 11 12 11 12 12 12 12 12 12 12 11 11 11 12 12 12 11 11 11 11 10 10 10 11 12 13 14 15 15 14 13 13 13 13 12 12 12 13 13 13 12 12 12 11 11 11 11 11 11 11 11 11 11 11 11 10 10 10 10 9 9 9 9 9 9 9 9 9 10 10 11 13 15 17 19 20 22 22 23
12 12 12 12 12 12 12 12 12 12 13 13 12 12 12 12 12 12 11 11 11 11 11 11 11 10 10 10 11 12 13 14 14 15 16 16 16 15 14 13 12 11 11 11 12 13 13 12 11 11 10 10 10 10 10 10 10 10 10 10 10 9 9 9 9 9 9 8 8 8 9 9 10 10 11 12 14 15 16 18 19 19 19 20 21
12 13 12 12 12 12 12 13 13 13 13 12 12 12 11 12 12 12 12 12 11 11 10 10 10 10 10 11 12 13 13 13 13 14 14 15 16 16 15 14 13 11 10 10 10 10 10 10 11 10 10 11 11 11 10 10 10 9 9 8 8 8 8 8 7 8 8 8 9 10 11 11 12 13 14 15 15 15 16 16 17 16 16 16 16
12 12 12 12 13 12 12 12 12 12 12 11 11 11 11 12 12 12 12 12 12 11 11 10 10 10 11 12 13 13 12 12 12 12 12 13 14 15 15 14 13 11 10 9 9 9 9 9 10 10 10 10 10 10 10 9 9 9 8 8 8 8 8 8 9 9 9 10 10 11 11 12 13 14 14 15 15 15 15 16 16 16 16 15 15
11 12 12 12 12 12 12 11 11 11 11 11 11 12 12 12 12 12 12 12 12 11 11 11 11 12 12 12 13 13 12 12 11 10 10 11 11 11 11 11 11 10 10 10 10 10 10 10 10 10 9 8 8 8 8 8 8 8 8 8 9 10 10 11 12 13 13 14 13 12 11 11 10 11 11 12 13 14 14 15 15 16 17 17 16
11 11 11 11 11 11 11 11 11 11 11 11 11 12 12 12 12 12 11 11 11 12 13 13 13 13 12 12 11 12 11 11 10 9 9 9 9 9 10 10 10 10 10 11 10 10 10 10 10 9 9 8 8 8 7 8 8 9 10 11 12 13 13 14 14 14 14 14 14 13 13 12 11 10 9 9 9 9 10 11 12 13 14 15 15
10 10 10 10 10 10 10 10 11 11 11 12 12 12 12 12 11 11 11 12 13 13 13 13 13 12 11 11 10 10 10 10 9 9 9 9 9 9 9 10 10 10 11 11 10 10 9 9 8 8 8 8 8 8 9 10 11 12 13 14 14 14 14 13 13 13 12 13 13 13 13 13 12 11 10 9 9 8 8 8 8 9 9 10 10
10 10 10 10 10 10 11 11 11 12 12 12 12 11 11 11 11 12 13 13 13 13 12 12 11 10 10 10 10 10 10 9 9 8 8 8 8 8 8 8 9 9 9 9 9 9 8 8 8 8 8 9 10 11 12 14 14 15 15 14 14 13 13 13 13 12 12 11 11 11 12 12 12 13 13 13 12 10 9 8 7 7 7 7 7
10 10 10 10 10 11 11 11 11 12 11 11 11 11 11 12 13 13 13 13 12 11 11 10 10 9 9 9 9 9 9 8 8 8 7 7 7 7 7 8 8 8 8 8 8 8 8 8 8 9 10 11 13 14 14 15 16 16 16 16 15 15 14 13 12 12 11 11 11 11 12 12 11 11 11 11 11 10 9 8 8 7 6 6 6
10 10 10 10 11 11 11 11 11 11 11 11 11 11 12 13 13 13 12 11 10 10 9 9 9 8 8 8 8 8 8 8 8 8 7 7 7 7 7 7 7 8 8 8 8 9 9 10 11 12 13 13 13 13 13 13 14 14 15 15 15 14 13 12 12 12 12 13 13 12 12 11 9 9 9 8 8 9 8 8 8 7 6 6 6
10 10 10 10 11 11 11 11 11 11 11 11 12 13 13 13 12 11 10 10 9 9 8 8 8 8 8 8 8 8 8 8 8 8 8 8 8 7 7 8 8 8 8 9 10 11 12 12 13 13 13 13 12 12 12 12 12 12 12 11 11 12 12 12 12 12 11 11 10 10 9 8 8 8 8 7 7 7 7 7 7 7 7 7 6
10 10 11 11 11 11 11 11 11 11 12 12 12 12 11 10 10 9 9 8 8 9 9 9 9 9 9 8 8 8 9 9 9 9 9 9 9 9 9 9 9 10 11 12 12 13 13 13 13 12 12 13 13 13 12 12 11 11 11 11 12 12 12 12 11 10 9 8 7 7 7 7 7 7 7 7 7 6 6 6 7 7 7 7 7
10 11 11 11 11 11 11 11 11 12 12 12 11 10 9 9 9 9 9 9 10 11 11 12 12 11 10 10 10 10 10 10 10 10 10 10 10 10 11 11 12 12 13 13 13 13 13 13 13 13 13 12 12 12 11 12 12 13 13 13 12 11 10 9 8 8 7 7 7 7 6 6 6 6 6 6 6 6 6 6 6 6 6 6 6
11 11 12 11 11 11 11 11 12 13 12 11 10 9 9 9 9 9 10 11 12 13 13 13 13 12 12 12 11 11 11 11 11 11 11 11 12 12 12 13 13 13 13 13 13 13 13 13 13 13 12 11 11 12 12 13 14 14 13 12 10 9 8 8 7 7 7 7 6 6 6 6 6 6 6 6 6 6 6 6 6 6 6 6 6
11 12 12 11 11 11 12 12 12 12 10 10 10 9 9 9 10 11 12 13 13 13 13 13 13 13 12 12 12 12 12 13 13 13 13 13 13 13 13 13 13 13 13 13 14 14 14 13 12 12 12 12 13 14 14 13 13 11 10 9 8 8 8 8 7 7 7 6 6 6 6 5 6 6 6 5 5 5 6 6 6 6 6 6 6
11 11 11 11 11 12 13 12 11 10 10 10 9 9 10 11 12 13 14 14 13 13 13 13 13 13 13 13 13 13 13 14 14 14 14 14 14 14 13 13 13 14 15 15 15 14 13 13 13 13 14 14 14 14 13 11 10 9 8 8 8 8 7 7 7 6 6 6 6 6 5 5 5 6 6 5 5 6 6 6 6 6 6 6 5
11 11 11 11 12 13 12 11 10 10 10 9 9 10 12 13 14 14 13 13 13 13 13 13 13 13 13 13 14 14 14 14 14 14 14 14 14 14 15 15 15 16 16 15 15 14 13 13 14 15 15 15 14 12 11 9 8 8 7 7 7 7 7 6 6 6 6 6 6 5 5 5 5 5 5 6 6 6 6 6 6 5 5 5 5
11 11 11 12 12 12 11 10 10 10 9 9 11 12 13 14 13 13 13 13 13 13 13 13 13 14 14 14 14 14 14 15 15 15 15 16 16 16 16 16 16 16 16 15 15 14 15 15 16 16 15 14 12 10 9 8 8 8 7 7 7 6 6 6 6 6 6 6 5 5 5 5 5 5 6 6 6 6 6 5 5 5 5 5 5
10 11 12 12 12 11 10 10 10 9 10 11 13 14 14 13 13 12 12 12 13 13 13 13 14 14 14 14 15 15 15 16 16 16 17 16 16 17 17 16 16 16 16 16 16 16 16 16 16 15 13 11 10 9 9 8 8 7 7 7 7 6 6 6 6 5 5 5 5 5 5 5 6 6 6 6 6 5 5 5 5 5 5 5 5
11 11 12 11 11 10 10 9 9 10 12 14 15 14 13 13 12 12 13 13 13 13 13 13 13 13 14 14 15 15 16 16 16 16 16 16 17 16 16 17 17 17 17 17 17 17 17 16 15 13 11 9 9 9 8 8 7 7 7 7 6 6 6 5 5 5 5 5 5 5 6 6 6 6 6 6 6 5 5 5 5 5 5 5 5
Wind_Speed
85 87 88 89 91 92 94 96 98 99 101 103 104 106 107 108 109 110 111 112 113 114 114 114 115 115 116 117 118 119 120 122 123 124 125 125 126 127 127 128 127 127 127 126 125 123 122 121 121 121 121 122 123 123 124 124 124 124 123 122 121 120 119 117 115 113 113 113 112 112 112 112 112 113 113 114 114 115 115 116 118 119 121 123 125
89 90 92 93 94 96 97 98 100 101 102 104 105 106 107 108 109 109 110 111 112 112 113 114 115 116 117 117 118 119 121 122 123 124 124 125 125 125 125 125 125 124 124 123 121 121 120 120 120 121 121 121 121 121 121 121 120 119 118 117 117 116 115 114 112 110 108 108 108 108 109 109 109 110 111 111 112 113 113 114 115 116 118 120 122
92 94 95 96 97 98 99 100 101 102 103 104 105 106 107 107 108 109 109 111 112 113 114 116 117 118 118 119 120 121 121 122 122 122 123 123 123 123 123 122 122 122 121 120 120 120 120 120 121 121 120 119 117 117 117 117 116 115 114 113 113 112 111 110 108 106 104 104 104 105 106 106 107 107 108 109 110 111 112 112 113 114 115 117 119
95 96 97 98 99 99 100 101 102 103 104 105 106 106 107 108 108 110 111 112 113 115 116 117 118 119 120 120 121 121 121 121 121 121 121 121 121 121 120 120 120 120 120 120 119 120 120 119 119 118 116 114 113 113 113 113 112 111 110 109 109 108 107 105 104 102 101 100 101 102 103 104 105 106 107 108 108 110 110 111 112 112 113 114 116
97 98 99 99 100 101 102 103 104 105 105 106 107 108 108 109 110 111 113 114 115 117 118 118 119 119 120 120 120 120 120 120 120 120 120 120 119 119 119 119 119 119 119 119 118 118 117 116 114 113 111 110 109 109 109 108 107 106 105 105 104 104 103 101 100 99 97 96 97 99 100 101 102 103 105 106 107 108 109 110 110 111 111 111 112
98 99 100 101 102 103 104 105 106 107 107 108 109 109 110 111 112 113 114 115 116 117 117 118 118 119 119 119 119 119 119 119 119 119 119 119 119 119 119 119 119 118 117 116 115 114 113 111 109 108 107 106 105 104 104 103 102 102 101 101 100 99 98 97 96 95 94 93 93 94 96 98 99 100 102 104 105 105 107 108 107 107 108 108 109
100 101 102 103 104 105 106 107 108 108 109 109 110 110 111 112 113 114 115 115 115 116 116 117 117 117 117 117 117 118 118 118 118 119 119 119 119 119 118 117 116 115 114 112 111 109 107 106 104 103 103 102 101 101 100 99 99 98 97 97 96 94 93 92 92 92 91 91 90 91 92 95 97 98 99 101 101 102 103 103 102 102 103 104 105
101 102 104 105 106 107 108 109 109 110 110 110 110 110 111 112 113 114 114 114 115 115 115 115 115 115 116 116 116 116 117 117 117 118 118 118 118 117 116 114 112 110 109 107 105 104 102 101 100 100 99 99 99 98 97 97 96 95 94 93 92 90 89 88 88 88 88 88 87 88 90 92 94 96 96 97 97 97 98 96 95 97 99 99 100
103 104 105 106 108 109 110 110 110 110 109 109 109 110 111 111 112 113 113 113 114 114 114 114 114 114 114 115 115 115 116 116 116 117 116 116 114 113 111 109 107 105 103 102 101 99 99 98 98 98 98 97 97 96 95 94 93 92 91 90 89 87 86 85 85 85 85 84 84 86 88 88 91 92 93 92 92 91 92 92 91 93 95 95 96
104 105 106 108 108 109 109 109 109 108 108 108 108 109 110 111 111 112 112 112 113 113 113 113 113 113 113 113 114 114 114 114 114 114 113 111 109 107 105 103 102 100 98 97 97 96 96 96 96 96 96 96 95 94 93 92 90 89 88 86 85 84 83 83 82 82 82 82 83 85 85 85 88 89 88 88 87 86 87 88 88 89 91 92 93
105 106 107 107 108 107 107 107 107 107 107 108 108 109 109 110 110 111 111 111 111 111 111 111 111 111 111 112 112 112 112 111 111 109 108 106 104 102 100 98 97 96 95 94 94 94 95 95 95 95 94 93 92 91 90 89 87 86 84 83 82 81 81 80 79 80 80 81 82 83 83 84 86 86 85 85 84 83 85 86 86 87 88 89 91
105 105 105 106 105 105 105 105 105 106 107 108 108 108 109 109 109 109 109 109 109 109 109 109 109 109 109 109 109 108 108 107 105 104 102 100 99 97 95 94 93 93 92 93 93 93 93 93 93 92 92 91 90 89 88 86 84 83 81 80 79 78 79 78 78 79 80 81 81 81 83 83 84 84 84 83 82 83 84 85 85 86 87 87 89
104 104 104 104 104 104 104 104 105 106 107 107 107 107 108 108 108 108 108 108 108 107 107 107 106 106 105 105 104 103 102 101 100 99 97 96 95 93 92 91 90 91 91 91 92 91 91 91 90 89 89 88 87 86 85 83 82 80 78 77 77 77 78 78 78 79 80 80 80 81 82 83 82 83 84 82 81 83 84 84 84 84 85 86 88
103 103 104 104 104 104 104 105 105 106 106 106 106 106 106 106 106 106 106 106 105 104 104 103 102 102 101 100 99 98 97 96 95 94 93 92 91 90 89 88 88 89 89 89 89 88 88 87 86 86 85 85 85 84 82 81 79 77 76 75 76 77 77 78 79 80 80 79 78 79 81 81 81 83 83 82 81 82 83 83 83 83 84 86 87
104 104 104 104 104 104 104 104 104 104 105 105 105 105 104 104 104 104 103 103 102 100 99 98 98 97 96 95 94 94 93 92 91 90 90 89 89 88 87 86 85 86 86 86 85 85 84 84 83 83 83 83 83 82 81 79 77 75 75 75 76 76 76 77 79 80 79 77 76 76 79 82 82 82 82 80 79 81 82 82 82 82 83 84 85
103 103 103 104 104 103 103 103 103 103 103 103 102 102 102 102 101 100 100 99 97 96 95 94 93 92 92 91 91 90 90 89 88 88 87 87 87 86 85 84 83 82 82 81 81 81 81 81 81 81 82 82 82 82 80 78 76 75 74 75 75 75 75 76 78 78 77 75 73 74 77 81 83 83 82 79 78 78 79 79 80 80 80 81 82
102 102 102 102 102 102 102 102 102 101 101 100 100 99 98 98 97 96 95 93 92 91 90 90 89 89 89 88 88 87 87 86 86 85 85 85 85 84 83 81 80 79 78 78 78 78 78 79 80 81 82 82 83 82 80 78 75 74 73 74 74 73 74 77 77 75 73 72 72 74 76 78 81 83 83 80 77 76 76 77 79 78 77 77 79
101 100 100 100 100 100 100 99 99 98 97 96 96 95 94 93 92 91 90 88 87 87 87 87 86 86 86 85 85 85 85 85 84 84 83 83 82 81 80 79 77 76 76 76 76 76 77 78 79 80 81 82 82 82 81 78 75 73 73 73 73 74 76 77 75 72 71 71 72 74 75 76 78 80 81 81 78 75 73 75 77 77 75 75 77
99 99 98 98 98 97 97 96 95 93 92 91 90 89 89 88 87 86 85 84 84 84 84 84 83 83 83 83 83 83 83 83 83 82 81 81 80 78 77 76 76 76 76 75 75 76 76 78 79 79 79 79 80 80 80 78 75 73 72 71 72 74 76 75 72 71 72 72 72 73 73 73 74 76 78 80 79 76 73 72 74 74 73 74 75
96 95 95 94 93 93 92 90 89 88 87 86 85 84 84 83 83 83 82 82 81 81 81 81 81 81 81 81 81 81 81 81 81 80 79 79 78 76 75 74 75 75 75 75 75 76 77 78 79 79 78 77 77 77 78 77 75 73 71 71 71 73 73 72 71 72 73 74 73 72 70 69 70 73 75 78 78 76 73 70 70 71 72 72 73
91 90 89 89 88 87 86 85 84 84 83 82 81 81 81 81 80 80 80 79 79 79 79 78 78 79 79 79 79 79 79 79 79 79 78 77 76 75 74 74 74 74 74 74 75 76 77 78 78 78 77 76 75 76 76 76 75 73 71 71 71 71 70 69 70 73 74 75 74 71 68 67 67 69 71 74 76 76 73 70 69 69 70 72 72
86 85 84 83 83 82 82 81 80 80 79 79 79 79 79 79 79 78 78 78 77 77 77 77 77 77 77 77 77 77 77 77 78 78 78 77 76 75 74 74 74 74 73 73 74 75 76 77 77 77 76 75 75 76 76 75 74 72 71 70 69 69 68 68 69 71 73 74 73 71 69 68 67 67 68 70 73 74 73 71 69 69 70 72 72
81 80 80 79 79 78 78 78 78 77 77 77 77 77 77 77 77 76 76 76 75 75 76 75 75 75 75 76 76 76 76 77 77 78 78 77 76 75 75 74 74 73 72 72 72 73 74 75 76 75 74 74 75 76 75 75 73 72 71 69 68 68 68 68 68 69 70 72 72 71 70 69 67 67 67 68 68 70 71 72 72 71 71 71 71
77 76 76 76 76 76 75 75 75 75 75 75 75 75 75 75 75 75 74 74 74 74 74 74 73 73 74 74 75 76 76 76 76 77 77 77 77 76 75 74 73 72 71 70 70 71 72 73 74 74 74 75 76 75 74 74 73 72 71 69 68 67 67 66 66 67 67 69 71 71 71 70 69 68 67 66 66 67 68 70 72 72 71 71 71
74 73 73 73 73 73 73 73 73 73 73 73 73 73 73 73 73 73 73 72 72 72 73 72 72 72 72 73 75 75 76 76 76 76 77 77 77 77 75 74 72 71 69 68 68 69 69 71 72 73 75 76 75 74 73 73 73 72 71 70 68 67 66 65 64 64 65 67 68 70 71 72 71 69 67 66 65 66 67 68 69 71 72 72 71
71 71 71 71 71 71 71 71 71 71 71 71 71 71 71 71 72 72 71 71 71 71 71 71 71 71 72 72 74 75 76 76 76 76 76 76 76 75 74 72 71 69 68 68 68 68 68 69 71 72 74 75 75 74 73 73 73 72 71 70 68 66 65 64 63 63 64 65 66 68 69 70 71 71 70 68 67 66 67 66 67 68 70 71 72
69 69 69 69 69 69 69 69 69 70 70 70 70 70 70 70 70 70 70 70 70 70 70 71 71 71 71 72 73 74 75 76 76 76 76 75 74 73 72 71 70 69 68 67 67 67 68 69 70 71 72 73 73 74 73 73 73 72 71 69 68 66 65 64 64 63 64 64 65 66 67 68 69 70 71 71 70 69 68 66 65 66 68 69 69
67 67 67 67 67 67 68 68 68 68 68 69 69 69 69 69 69 69 69 69 69 70 70 70 70 70 70 71 72 73 75 76 76 75 75 74 72 71 71 71 70 69 68 67 67 66 67 69 70 71 72 72 72 72 72 72 72 71 71 70 69 68 66 64 64 64 64 64 64 64 65 66 66 68 69 70 71 71 71 69 67 66 66 66 66
65 65 65 66 66 66 66 67 67 67 67 68 68 68 68 68 68 69 69 69 69 69 69 69 69 69 69 70 71 72 74 75 76 74 73 72 71 70 70 70 70 70 69 68 67 67 68 69 69 70 71 71 71 71 71 71 70 70 70 70 70 69 68 66 65 64 63 63 63 64 65 65 66 67 67 68 69 71 72 71 70 69 67 66 66
64 64 64 65 65 66 66 66 66 66 66 67 68 68 68 68 68 69 69 69 69 69 68 68 68 69 69 70 71 71 72 73 74 73 72 70 69 69 70 70 70 70 70 68 67 67 68 68 69 69 69 69 70 70 70 70 70 69 69 69 68 68 68 67 67 66 64 63 63 63 64 65 65 66 66 66 68 69 70 70 71 71 70 69 68
63 63 64 65 65 65 65 65 66 66 66 66 67 68 69 69 68 68 68 69 69 69 68 68 68 69 69 69 69 69 70 71 72 72 72 70 69 68 69 69 70 70 70 69 68 68 67 67 67 68 68 68 69 69 69 69 69 69 69 68 68 67 67 66 66 66 64 64 63 64 64 65 65 65 66 66 66 67 68 68 69 70 71 71 70
63 63 64 64 65 65 65 65 65 65 66 66 67 67 68 69 70 69 68 68 68 68 68 68 68 69 69 68 67 66 67 68 69 70 71 71 71 70 69 69 69 68 67 67 68 69 69 68 67 67 67 67 67 67 67 67 67 67 67 67 67 67 66 66 66 65 64 64 64 64 64 64 65 65 65 65 66 66 67 67 68 68 69 70 71
63 63 64 64 64 64 65 65 65 65 66 66 67 67 68 68 69 70 69 68 67 67 68 68 68 68 68 67 66 65 66 66 65 66 67 69 70 71 71 71 70 68 66 65 65 66 67 67 68 68 68 67 67 67 66 66 66 65 65 65 65 65 64 64 64 64 64 64 64 64 64 64 64 64 64 64 64 65 65 66 67 67 68 68 70
62 63 63 64 64 64 64 64 65 65 66 66 66 67 67 67 67 68 68 69 69 69 69 68 67 66 66 65 65 65 66 66 65 64 64 65 67 69 71 72 71 70 68 66 64 64 64 65 65 66 66 66 66 66 66 66 65 65 64 64 64 64 64 63 63 63 62 62 62 62 63 63 63 63 63 63 64 64 64 65 67 67 67 68 69
62 62 63 63 64 64 64 64 64 65 65 66 66 66 66 66 66 66 67 68 69 70 71 70 68 67 66 65 65 66 66 66 65 64 63 63 64 66 68 69 70 70 69 67 66 65 64 64 64 64 63 64 63 63 63 64 64 63 63 63 63 63 63 63 62 62 62 61 61 61 61 61 62 62 63 63 64 64 65 66 66 67 67 68 68
62 62 62 63 63 63 63 63 63 64 64 64 65 65 65 65 65 65 66 67 67 68 70 70 70 69 67 66 66 66 67 67 66 64 63 63 62 63 64 65 66 67 67 66 66 65 64 64 64 64 63 63 62 62 61 61 61 61 61 60 60 60 60 61 61 61 61 61 62 63 63 63 63 63 62 62 63 63 64 64 65 66 67 67 68
61 61 61 62 62 62 63 63 63 63 63 63 63 64 64 64 64 65 65 66 66 67 68 68 69 69 68 67 65 65 66 66 66 65 64 63 62 61 61 62 62 63 63 64 63 63 63 64 63 63 63 63 62 62 61 60 59 59 59 58 58 58 58 59 59 60 60 61 61 63 64 65 65 65 64 62 62 61 61 61 61 62 63 64 65
60 60 60 61 61 62 62 62 62 62 62 62 62 63 64 64 65 65 65 66 66 66 67 67 67 67 67 66 66 65 65 65 65 64 63 62 61 60 59 59 59 59 60 60 60 61 62 62 62 62 62 62 61 61 60 59 58 57 57 57 57 57 58 58 59 60 60 60 60 61 62 64 65 65 65 64 63 62 60 59 58 58 58 59 60
59 59 59 60 60 61 61 61 61 61 61 61 62 62 63 64 64 65 65 65 66 66 66 66 66 65 64 64 64 63 63 63 63 62 61 60 59 59 58 57 57 57 57 57 58 58 59 60 60 60 59 59 58 58 58 58 58 57 57 57 58 58 58 58 59 59 59 59 60 60 61 61 62 63 63 64 63 63 62 60 59 57 57 57 57
57 58 58 58 59 59 59 59 60 60 61 61 62 62 62 63 63 64 64 64 64 65 64 64 64 63 62 62 61 61 61 61 61 61 60 59 59 58 57 56 56 56 56 56 56 56 57 57 57 57 56 56 55 55 56 56 57 57 58 58 58 58 59 59 59 59 59 59 59 60 60 60 59 59 60 60 61 62 62 62 61 59 58 57 57
57 57 57 57 57 58 58 58 59 60 61 61 62 62 62 62 62 62 63 63 63 62 62 62 62 61 60 59 59 59 59 59 59 59 59 59 58 57 56 56 55 55 55 55 55 55 54 54 54 54 54 54 55 55 55 55 55 56 56 57 57 57 57 57 57 57 57 57 57 58 58 58 58 58 58 58 58 59 59 60 60 60 59 58 57
56 56 56 56 56 57 57 58 59 60 60 61 61 61 61 61 61 61 61 61 61 60 60 60 60 60 59 58 57 57 57 57 57 57 57 57 57 57 56 55 55 54 54 53 53 52 52 52 52 53 53 54 55 55 55 55 55 55 56 56 56 55 55 55 54 54 53 53 54 55 55 56 56 56 57 57 56 56 56 56 57 58 58 57 57
55 55 56 56 56 57 58 58 59 59 60 60 60 60 59 59 59 59 59 59 59 59 58 58 58 58 57 56 55 55 55 54 55 55 55 55 55 55 55 55 54 53 52 52 51 51 51 51 52 52 53 53 54 54 54 54 54 54 55 55 54 54 53 52 52 51 51 51 51 52 52 53 53 53 54 54 54 53 53 53 53 54 54 54 54
54 55 55 56 57 57 58 58 58 58 59 59 59 59 58 58 58 58 58 58 57 57 56 56 56 56 55 55 54 54 53 53 53 53 53 54 54 54 53 53 52 52 51 51 51 51 51 51 52 52 52 52 52 53 53 53 53 53 53 53 52 52 51 51 50 50 49 49 50 50 51 51 51 51 50 50 50 50 50 50 50 50 50 51 51
54 54 55 56 57 57 57 57 57 57 58 58 58 58 58 57 57 57 56 56 55 55 55 55 55 55 55 54 54 53 53 52 52 52 52 52 52 52 51 51 51 51 51 51 51 51 51 51 51 51 51 51 51 51 50 50 50 50 50 50 50 50 49 49 49 49 49 48 48 48 48 48 48 47 47 47 47 46 46 46 47 47 47 48 48
54 54 55 56 56 57 57 57 57 56 56 56 57 57 56 56 55 55 55 54 54 54 54 54 54 54 54 54 53 53 52 52 51 51 51 51 51 51 51 51 51 51 50 50 50 50 50 50 50 50 50 50 49 49 48 47 47 47 48 48 48 48 48 48 48 47 47 47 47 46 46 45 45 45 45 45 44 43 43 43 44 45 45 45 45
54 54 55 55 56 56 56 56 56 55 56 55 55 55 54 54 54 54 54 54 53 53 53 53 53 53 53 52 52 52 51 51 51 51 51 51 51 51 50 50 50 49 49 49 49 49 50 50 49 49 48 47 47 46 46 46 46 46 46 46 46 46 46 46 46 46 45 45 45 44 44 43 43 42 43 43 42 41 40 41 42 42 42 42 42
54 54 54 55 54 54 54 54 54 54 54 54 54 53 52 52 52 52 52 52 52 52 52 52 51 51 51 51 51 50 50 50 50 50 50 50 50 50 49 49 49 48 48 49 49 49 49 48 47 46 46 45 45 45 45 45 45 45 44 44 44 44 44 44 44 44 43 43 43 42 42 41 41 40 39 39 39 38 38 38 38 38 38 39 39
53 53 53 53 53 53 53 53 53 53 53 52 52 51 51 51 51 51 51 51 51 51 51 50 50 50 49 49 49 49 49 49 49 49 49 49 49 48 48 48 48 48 48 48 48 47 47 46 45 45 44 44 44 44 44 44 43 43 43 43 42 42 42 42 42 42 41 41 40 39 39 38 37 37 36 35 35 35 35 34 35 35 35 35 35
52 52 52 52 52 52 52 52 52 51 51 51 50 50 50 50 50 50 50 50 50 50 49 49 49 48 48 48 48 48 48 48 48 48 48 48 48 48 48 47 47 47 47 47 46 46 45 44 44 44 43 43 43 43 42 42 42 42 42 41 41 40 40 40 40 39 38 37 37 36 35 34 34 33 32 31 31 31 32 32 32 32 32 32 32
51 51 51 51 51 51 51 51 50 50 49 49 50 50 50 50 50 50 50 50 49 49 48 48 48 47 47 47 47 47 47 47 47 47 47 47 47 46 46 46 46 46 45 45 45 44 44 43 43 42 42 41 41 41 41 41 41 40 40 39 39 38 38 37 37 36 35 34 33 32 32 31 30 29 29 28 29 29 29 29 29 29 29 29 29
Wind_Direction
283 283 282 282 282 282 282 282 282 282 282 282 282 282 282 282 282 281 281 281 281 281 280 280 279 278 278 278 278 278 278 278 278 279 279 279 280 280 280 280 281 281 281 281 281 281 280 280 280 279 279 278 278 277 277 277 277 276 276 276 275 275 274 274 273 272 271 271 270 270 269 268 267 266 265 264 262 261 260 259 258 257 257 257 257
285 284 284 284 284 284 284 284 284 284 284 283 283 283 283 283 283 282 282 282 282 282 281 281 280 280 280 280 280 280 280 280 280 280 281 281 281 281 281 281 281 281 281 282 282 282 282 281 281 280 279 279 279 278 278 277 276 276 276 275 275 275 274 273 273 272 271 271 270 270 269 268 267 266 265 264 263 262 260 259 258 257 256 256 256
287 286 286 286 286 286 286 286 285 285 285 285 284 284 284 284 284 283 283 283 283 282 282 282 282 282 282 281 281 281 281 281 282 282 282 282 282 282 282 282 282 282 282 282 282 282 282 282 281 281 280 280 279 279 278 277 277 276 276 275 275 274 273 273 273 272 271 271 270 269 268 268 267 265 264 263 262 261 260 259 258 257 256 255 255
288 288 288 287 287 287 287 287 286 286 285 285 284 284 284 284 284 284 284 284 283 283 283 283 283 283 283 283 283 283 283 283 283 283 283 283 282 282 282 282 283 283 283 283 283 283 282 282 281 281 281 280 279 278 277 277 277 276 276 275 274 274 273 273 273 272 271 270 270 269 268 267 267 265 264 263 262 261 260 259 258 257 256 256 255
287 287 287 287 287 287 287 286 286 286 285 285 285 285 285 285 285 284 284 284 284 284 284 284 284 284 284 284 284 284 284 284 284 284 284 283 283 283 283 283 283 283 284 283 283 283 282 282 281 281 280 279 278 277 277 276 276 276 275 275 274 274 274 274 273 272 271 270 269 269 268 267 266 265 264 263 262 261 260 259 258 258 257 257 256
286 286 286 286 286 286 286 286 286 285 285 285 285 285 286 285 285 285 285 284 285 285 285 284 284 285 285 285 285 285 285 285 284 284 284 284 284 284 284 284 284 284 284 283 283 282 282 282 281 280 279 279 278 277 277 276 276 276 275 275 275 275 274 274 274 273 272 271 270 269 268 267 267 266 264 263 262 261 260 260 259 259 258 258 258
285 286 286 286 285 285 285 285 285 285 285 285 286 286 286 286 285 285 285 285 285 285 284 285 285 285 285 285 285 285 285 284 284 284 284 284 284 284 284 284 284 284 284 283 283 283 282 282 281 280 280 279 278 278 278 277 277 277 276 276 276 275 275 275 274 274 273 272 271 270 268 267 267 266 265 263 263 262 262 261 261 261 260 259 258
285 285 285 285 285 285 284 284 284 285 285 285 285 285 285 285 285 284 284 284 284 284 284 285 285 285 285 284 284 284 284 284 284 284 284 284 284 285 285 285 284 284 284 284 283 283 283 282 282 281 281 280 280 280 279 279 279 278 278 277 277 276 276 275 274 274 273 272 271 269 268 267 266 266 265 264 264 264 264 263 263 263 261 260 259
284 284 284 284 284 284 284 284 284 285 285 285 285 285 284 284 284 284 284 284 284 284 285 285 285 284 284 284 284 284 284 284 284 284 284 285 285 285 285 285 285 285 285 284 284 283 283 283 283 282 282 281 281 281 281 280 280 279 279 278 278 277 277 276 275 274 273 272 270 268 267 266 266 266 265 265 265 265 265 265 264 263 262 261 259
284 284 284 283 283 283 284 284 285 285 285 285 284 284 284 284 284 284 284 284 285 285 285 284 284 284 284 284 284 284 284 284 284 285 285 285 285 285 285 285 285 285 285 285 284 284 284 284 283 283 283 282 282 282 281 280 280 279 279 279 278 278 277 276 275 274 273 272 270 269 268 267 267 266 266 266 266 265 265 265 264 263 262 261 260
284 283 283 283 283 284 284 285 285 285 285 284 284 284 284 284 284 284 284 284 284 284 284 284 284 284 284 284 284 284 284 284 285 285 285 285 285 285 285 285 285 285 285 285 285 284 284 284 284 283 283 283 282 282 281 280 280 280 279 279 278 278 277 276 275 274 273 271 270 270 269 268 268 268 267 267 266 266 265 264 263 263 262 262 261
283 283 283 284 284 285 285 285 285 285 284 284 284 284 284 284 284 284 284 284 284 284 284 284 284 284 284 284 284 285 285 285 285 285 285 285 286 286 286 286 286 286 286 286 285 285 284 284 284 283 283 283 282 281 281 280 280 280 279 279 278 278 277 276 275 273 272 271 271 270 270 269 269 269 268 267 267 266 265 264 263 263 262 262 261
284 284 284 285 285 285 285 285 285 284 284 284 284 285 285 285 285 284 284 284 284 284 284 284 284 284 285 285 285 285 285 285 285 285 286 286 286 286 286 286 286 286 286 285 285 285 284 284 283 283 282 281 281 280 280 280 279 279 279 279 279 278 277 275 274 273 272 272 271 271 271 270 270 269 268 267 267 266 265 264 263 262 262 261 261
285 285 286 286 286 286 285 285 285 285 285 285 285 285 285 285 285 285 285 285 285 285 285 285 285 285 285 285 285 285 285 285 286 286 286 286 286 286 286 286 286 286 285 285 285 284 284 283 282 282 281 281 280 280 279 279 279 279 279 279 278 277 276 275 274 273 272 272 272 272 272 271 270 269 268 267 267 266 265 264 263 262 262 261 260
286 286 286 286 286 285 285 285 285 285 285 285 285 285 285 285 285 285 285 285 285 286 286 286 286 286 286 286 286 286 286 286 286 286 286 286 286 286 286 285 285 285 285 284 284 284 283 282 282 281 281 281 280 279 279 279 279 280 279 278 277 276 276 275 274 273 273 273 273 273 273 272 270 269 268 267 266 266 265 265 264 263 262 261 261
286 286 286 286 286 286 286 286 286 286 285 285 285 285 285 285 286 286 286 286 286 286 286 286 286 286 286 286 286 286 286 286 286 286 286 286 286 286 286 285 285 285 284 284 284 283 283 283 283 282 282 281 280 280 280 280 280 279 278 278 276 276 275 274 273 273 274 274 274 273 273 273 272 271 269 268 267 267 266 266 264 263 262 262 261
286 286 286 286 286 286 286 286 286 286 286 286 286 286 286 286 286 286 286 287 287 287 287 287 287 286 287 287 287 287 287 287 287 287 287 287 286 286 286 286 286 285 285 284 283 283 283 283 283 282 282 282 281 281 281 280 280 279 278 278 277 276 275 274 273 274 275 275 274 273 272 272 273 273 272 271 268 267 266 266 265 263 262 262 261
286 286 286 286 286 286 286 285 285 286 286 286 286 286 286 286 286 287 287 287 287 287 287 287 287 287 287 288 288 288 288 288 288 287 287 287 287 287 287 287 286 286 285 284 284 284 283 283 282 282 282 282 282 282 282 281 281 280 279 279 278 277 276 275 275 276 275 274 273 272 272 272 272 272 273 272 270 267 266 265 265 264 263 262 261
286 286 286 286 285 285 285 285 286 286 286 286 286 287 287 287 287 287 288 288 288 287 287 288 288 288 288 289 289 288 288 288 288 287 287 287 287 287 287 287 286 286 285 285 285 284 283 282 281 281 281 281 282 282 282 282 281 280 279 279 279 278 277 278 278 277 276 274 272 271 271 272 272 272 272 271 270 268 266 264 265 265 264 262 261
286 285 285 285 285 286 286 286 287 287 287 287 287 287 288 288 288 288 289 288 288 288 289 289 289 289 289 289 289 289 288 288 288 287 287 287 287 287 287 287 286 286 286 286 286 285 284 283 282 281 281 281 281 282 282 281 281 280 280 279 278 278 279 280 280 278 276 275 273 271 271 270 270 270 271 271 270 269 267 265 264 263 263 262 261
285 285 285 286 286 287 287 288 288 288 288 289 289 289 289 289 289 289 289 289 290 290 290 290 290 290 290 289 289 289 288 288 288 288 287 287 288 288 287 287 287 287 287 287 286 285 284 284 283 282 282 282 282 282 281 281 281 281 280 280 279 279 280 280 279 278 277 276 275 274 272 270 268 268 269 270 271 270 268 266 264 263 262 261 260
286 287 287 288 288 289 289 289 289 290 290 290 290 290 290 290 290 290 291 291 291 291 291 291 291 290 290 290 289 289 289 288 288 288 288 288 288 288 288 288 288 288 288 287 286 286 285 284 283 284 284 284 283 282 281 281 281 281 281 281 281 280 280 278 277 277 277 277 277 276 274 271 269 267 267 267 269 270 270 269 266 264 262 262 261
288 289 289 290 290 290 290 291 291 291 291 291 291 291 291 291 291 291 292 292 292 292 291 291 291 291 290 290 289 289 289 289 289 289 289 290 290 290 289 289 289 288 288 287 286 286 285 285 285 285 285 284 283 282 282 282 282 282 282 281 281 280 279 278 277 277 277 277 277 276 274 273 271 269 267 266 267 268 269 269 268 265 264 263 262
290 290 290 290 291 291 291 291 291 291 291 291 291 291 292 292 292 292 292 292 292 292 291 291 291 290 290 290 289 289 289 289 290 290 290 291 291 291 290 290 289 288 287 287 286 286 286 286 286 285 284 283 283 283 283 284 284 283 283 282 280 279 278 278 277 277 277 277 277 276 275 274 272 270 268 267 266 266 266 266 267 267 266 264 263
290 291 291 291 291 291 291 291 291 291 291 292 292 292 292 292 292 292 292 292 292 292 291 291 290 290 290 290 290 290 290 290 290 291 291 291 291 291 291 290 289 289 288 288 287 286 286 286 285 285 284 284 284 284 285 285 284 284 283 282 281 280 279 277 276 276 275 275 275 276 276 275 274 272 270 268 266 264 264 263 264 265 265 265 264
291 291 291 291 291 291 291 292 292 292 292 292 292 292 292 292 292 292 292 292 292 291 291 291 291 290 291 291 291 291 291 291 291 291 292 291 291 291 291 290 290 289 289 289 288 287 286 285 285 284 284 285 286 286 286 285 285 284 283 282 282 281 279 278 277 276 274 274 274 274 274 275 276 275 273 270 268 265 263 261 261 262 262 263 264
291 291 291 291 291 292 292 292 292 292 292 293 293 293 292 292 292 292 292 292 292 291 291 291 291 291 292 292 292 292 292 292 292 292 292 292 291 292 292 291 291 290 290 289 288 288 287 286 285 285 285 285 286 286 286 286 285 285 284 283 282 281 280 279 278 276 275 274 273 273 273 273 273 274 274 273 271 269 266 263 260 259 259 259 261
292 292 292 292 292 293 293 293 293 293 293 293 293 293 293 292 292 292 292 292 292 292 292 292 292 292 292 292 292 292 293 292 292 292 292 292 293 293 293 292 292 291 290 289 289 288 287 286 286 286 286 286 286 286 286 286 286 286 285 284 283 282 281 279 278 276 275 274 273 273 272 271 271 271 271 271 272 271 270 268 265 261 259 257 257
292 293 293 293 293 293 293 293 293 293 293 293 293 293 293 294 293 293 293 293 293 293 293 293 293 293 293 293 293 293 293 293 293 293 293 294 294 294 293 293 292 291 290 290 290 289 288 287 287 287 287 287 287 286 286 285 285 285 285 284 284 284 283 281 279 277 276 274 273 272 271 270 269 268 268 268 269 269 270 270 269 267 264 261 258
294 294 294 294 294 294 294 294 294 294 294 294 294 295 295 294 294 295 295 295 294 294 294 294 294 294 294 294 294 294 294 294 294 294 295 295 295 294 294 293 292 292 291 291 290 289 288 288 288 288 288 287 287 286 286 286 285 284 284 283 283 282 282 281 280 279 277 276 274 272 271 269 268 267 267 266 266 266 266 267 268 269 268 266 263
295 295 295 294 294 294 294 294 294 295 295 295 295 296 296 296 296 295 295 296 296 295 295 295 295 295 295 295 295 295 295 295 295 296 295 295 294 293 293 292 292 292 292 293 292 291 289 289 288 288 287 287 287 286 286 286 286 285 285 284 283 282 281 280 279 278 277 276 274 273 272 270 269 268 267 266 265 265 264 264 265 266 267 267 267
295 295 295 295 295 295 295 295 295 295 296 296 296 296 297 297 297 297 296 296 295 295 296 296 296 296 296 295 295 295 295 295 295 296 296 296 295 294 293 292 292 292 292 292 292 292 291 291 290 289 288 287 286 286 285 285 284 284 283 283 282 282 281 280 279 278 277 276 274 273 272 271 270 269 268 267 266 266 265 265 264 264 264 265 266
296 296 295 295 295 296 296 296 296 296 297 297 297 297 297 297 297 297 297 297 297 296 297 297 297 297 297 297 297 296 295 294 294 294 294 295 295 295 295 294 294 293 292 292 291 291 291 291 291 290 290 289 288 287 286 285 284 283 283 282 281 280 280 279 278 278 277 276 276 275 274 273 271 270 269 268 267 266 265 265 264 264 263 263 264
296 296 296 296 296 296 296 297 297 297 297 297 297 297 297 297 298 298 299 299 299 299 298 298 297 297 297 298 297 296 295 294 294 294 293 294 294 294 294 294 294 294 294 293 292 291 290 289 289 289 289 288 288 287 287 286 286 285 284 283 282 282 281 280 279 278 277 276 275 274 274 273 272 271 270 270 269 268 267 266 266 265 265 264 264
296 296 296 297 297 297 297 297 297 297 297 297 298 298 298 299 299 300 300 300 300 300 300 300 299 299 299 299 298 297 296 296 296 295 294 294 293 292 293 293 294 294 294 294 294 293 292 291 289 289 288 287 286 286 286 285 285 285 284 284 284 283 283 282 282 281 280 279 277 275 274 272 271 270 270 269 269 268 268 268 268 267 267 266 266
297 297 297 297 297 297 297 297 298 298 298 299 299 300 300 300 301 301 300 300 300 301 301 301 301 301 301 301 300 299 299 298 297 296 295 294 293 292 292 292 293 293 294 294 294 293 293 292 291 290 289 288 287 287 286 285 285 285 284 284 284 283 283 282 282 281 281 280 279 278 277 276 274 272 271 269 268 267 267 266 266 266 266 266 265
297 298 298 298 298 298 299 299 299 300 300 301 301 302 302 302 301 301 301 301 302 302 301 301 301 301 302 302 301 300 299 299 298 297 297 296 295 294 293 293 293 293 293 293 293 293 292 291 291 290 290 290 289 289 288 288 287 287 286 285 284 283 282 281 281 280 280 279 279 279 279 279 278 277 276 274 272 270 268 266 265 263 263 262 262
299 299 299 299 299 300 300 301 301 302 303 303 303 303 303 303 303 303 303 303 303 302 302 302 302 302 303 303 302 301 300 299 298 298 298 297 297 296 295 294 293 293 293 292 292 292 291 291 291 291 291 291 291 291 291 290 289 287 286 285 284 284 283 282 281 281 280 280 279 279 279 279 279 280 280 279 278 276 274 271 268 266 264 263 261
300 300 300 301 301 302 302 303 304 304 304 304 303 303 304 304 304 304 304 304 304 304 304 303 303 303 303 303 302 302 301 300 300 300 300 299 299 298 297 296 295 294 293 292 291 291 291 291 291 291 291 292 292 292 291 290 290 289 288 287 286 285 284 284 283 283 282 282 281 280 279 278 278 278 279 279 279 279 278 276 274 272 269 267 265
301 302 302 302 303 304 304 305 305 305 304 304 305 305 305 305 305 305 305 305 305 305 304 304 304 303 303 302 302 302 302 301 301 301 301 301 301 300 299 297 296 295 294 293 292 292 292 292 293 293 292 291 291 290 289 289 289 289 288 288 287 286 286 285 285 284 284 284 283 281 280 279 278 277 277 276 276 277 277 277 276 275 273 271 269
304 304 305 305 306 306 306 306 305 305 306 306 306 306 307 307 306 306 306 306 305 305 305 305 304 304 304 304 303 303 302 302 302 302 302 302 301 300 299 298 297 296 296 295 295 295 295 295 294 294 293 292 291 290 289 289 288 288 287 286 286 285 285 285 284 284 283 282 282 281 280 279 279 278 277 275 274 274 274 275 275 275 274 272 271
306 307 307 307 307 307 307 307 307 307 308 308 307 307 308 307 307 307 306 306 306 307 307 306 306 306 305 305 304 304 303 303 303 302 302 302 302 301 300 299 299 299 298 298 298 297 296 295 294 293 293 293 292 292 292 291 290 290 289 288 288 287 286 285 285 284 283 281 280 279 278 278 277 277 276 276 275 274 273 273 272 272 272 272 270
308 309 309 308 308 308 309 309 309 309 309 308 308 308 308 308 308 308 308 308 309 309 308 308 308 307 306 306 305 305 304 304 303 303 303 302 302 301 301 301 301 301 301 300 299 298 297 296 296 295 295 295 295 294 294 294 293 293 292 291 290 289 288 287 286 285 284 282 281 280 279 278 278 277 276 276 275 275 273 272 270 270 270 269 269
310 310 310 310 310 310 310 310 310 310 310 310 310 310 310 310 310 311 310 310 310 310 309 309 309 308 307 307 306 306 305 305 305 304 304 303 302 302 303 303 302 302 301 300 300 299 299 299 298 297 297 297 296 296 296 295 295 294 293 292 291 291 290 289 288 287 286 285 283 282 281 280 279 278 277 276 275 274 273 272 271 270 269 268 268
312 312 311 311 311 311 311 312 312 312 311 311 312 312 312 312 312 312 311 311 311 310 310 310 310 309 309 308 308 307 307 307 306 306 305 304 304 304 303 303 303 302 302 302 302 301 301 300 300 299 299 299 298 298 297 296 295 294 293 293 293 292 292 291 290 289 288 287 285 284 283 282 281 280 279 278 276 275 274 273 272 271 270 268 267
312 312 312 312 312 313 313 313 313 313 313 313 313 313 313 313 312 312 312 312 311 311 311 311 311 310 310 310 310 310 309 309 308 307 306 306 305 305 304 304 304 304 304 304 304 303 303 302 302 302 301 301 300 300 299 297 297 296 295 295 295 294 293 292 291 290 289 288 287 286 285 284 283 282 281 279 278 277 275 274 272 271 269 268 267
313 313 313 313 314 314 314 314 314 314 315 314 314 314 314 313 313 313 313 313 313 313 313 313 312 312 312 312 311 311 310 310 309 308 308 307 307 307 307 307 307 307 307 306 305 305 304 304 304 304 304 303 302 301 301 300 299 298 297 297 296 295 294 293 292 291 291 290 289 288 287 286 284 283 281 280 279 277 275 273 271 269 268 267 266
314 314 314 314 314 314 315 315 315 316 315 315 315 315 315 314 314 314 314 314 315 315 314 314 314 313 313 313 313 312 312 311 311 310 310 310 310 310 310 310 310 309 308 308 307 307 307 307 307 307 306 305 304 303 303 301 301 300 299 298 297 297 296 295 294 293 292 291 290 288 287 286 284 283 281 280 278 276 274 272 270 268 267 266 265
314 314 314 315 315 315 316 316 316 316 316 316 316 316 316 316 316 316 316 316 316 316 316 316 315 315 315 315 314 314 314 313 313 313 313 312 312 312 312 312 311 311 310 309 309 309 310 310 310 309 308 307 306 305 304 303 302 302 301 301 300 299 298 297 295 294 293 291 290 288 287 286 284 283 281 279 277 276 274 272 270 269 267 266 264
315 315 315 316 317 317 317 317 317 317 317 317 318 318 318 318 318 318 318 318 318 317 317 317 317 317 317 316 316 316 316 315 315 314 314 314 314 314 314 313 313 312 312 312 312 313 313 313 312 311 310 308 307 306 305 305 305 304 304 303 302 301 299 297 296 295 293 292 291 289 288 287 285 284 282 280 278 276 274 272 270 268 267 265 264
316 316 317 317 318 318 318 318 318 318 319 319 320 320 320 320 320 320 320 320 319 319 319 319 319 319 319 318 318 317 317 316 316 315 315 315 315 316 316 316 315 315 315 315 315 316 315 314 313 312 311 310 309 308 307 307 307 307 306 305 303 302 300 298 297 296 295 294 292 291 290 288 287 285 283 281 279 277 274 272 270 268 266 265 263